TVS2783 DTTJ-LKPR

Flight info

Callsign TVS2783
Flight time 2h 28m
Altitude 36000
Route DCT TRIFA G362 RALAK DCT PAN/N0449F370 DCT LIMRA DCT APRAQ DCT
Aircraft B738/M-SDE3FGHIJ1RWXYZ/LB1

Departure

Time 2026-04-25 15:18
Airport Djerba Zarzis International Airport (DTTJ)

Arrival

Time 2026-04-25 17:47
Airport Václav Havel Airport Prague (LKPR)
Time Latitude Longitude Altitude Speed Heading
2026-04-25 14:47 33.87202 10.77331 28 ft 0 kts 140°
2026-04-25 15:09 33.87225 10.77308 32 ft 3 kts 140°
2026-04-25 15:10 33.87239 10.77294 30 ft 3 kts 131°
2026-04-25 15:10 33.87249 10.77275 30 ft 3 kts 101°
2026-04-25 15:10 33.87237 10.77234 29 ft 3 kts 44°
2026-04-25 15:11 33.87225 10.77220 30 ft 1 kts 44°
2026-04-25 15:11 33.87223 10.77218 30 ft 0 kts 45°
2026-04-25 15:14 33.87228 10.77223 30 ft 5 kts 41°
2026-04-25 15:15 33.87287 10.77255 26 ft 11 kts 356°
2026-04-25 15:15 33.87356 10.77211 27 ft 12 kts 294°
2026-04-25 15:15 33.87363 10.77115 26 ft 12 kts 267°
2026-04-25 15:15 33.87360 10.76975 31 ft 20 kts 268°
2026-04-25 15:16 33.87355 10.76793 22 ft 25 kts 268°
2026-04-25 15:16 33.87349 10.76595 19 ft 23 kts 269°
2026-04-25 15:16 33.87338 10.76167 16 ft 16 kts 268°
2026-04-25 15:17 33.87506 10.76080 22 ft 15 kts 75°
2026-04-25 15:17 33.87510 10.76302 20 ft 55 kts 88°
2026-04-25 15:17 33.87529 10.77049 20 ft 121 kts 89°
2026-04-25 15:18 33.87561 10.78278 95 ft 167 kts 86°
2026-04-25 15:18 33.87660 10.81205 1620 ft 177 kts 88°
2026-04-25 15:18 33.87712 10.82717 2412 ft 185 kts 86°
2026-04-25 15:19 33.87799 10.84321 3111 ft 196 kts 85°
2026-04-25 15:19 33.87855 10.85405 3715 ft 196 kts 86°
2026-04-25 15:19 33.87914 10.87775 4186 ft 230 kts 83°
2026-04-25 15:19 33.88530 10.89587 4492 ft 243 kts 44°
2026-04-25 15:20 33.89932 10.90742 5003 ft 254 kts 27°
2026-04-25 15:20 33.91537 10.91787 5578 ft 267 kts 27°
2026-04-25 15:20 33.93173 10.92870 6438 ft 269 kts 27°
2026-04-25 15:20 33.94809 10.93992 7263 ft 272 kts 28°
2026-04-25 15:21 33.96458 10.95156 8044 ft 277 kts 29°
2026-04-25 15:21 33.98118 10.96355 8859 ft 280 kts 29°
2026-04-25 15:21 33.99772 10.97567 9677 ft 283 kts 29°
2026-04-25 15:21 34.01464 10.98820 10421 ft 289 kts 29°
2026-04-25 15:22 34.03242 11.00141 10667 ft 313 kts 29°
2026-04-25 15:22 34.05161 11.01574 10858 ft 336 kts 30°
2026-04-25 15:22 34.07201 11.03104 11201 ft 352 kts 30°
2026-04-25 15:22 34.09304 11.04688 11819 ft 358 kts 30°
2026-04-25 15:23 34.11425 11.06288 12553 ft 361 kts 30°
2026-04-25 15:23 34.13564 11.07901 13270 ft 364 kts 30°
2026-04-25 15:23 34.15727 11.09531 13952 ft 369 kts 30°
2026-04-25 15:23 34.17905 11.11202 14547 ft 374 kts 32°
2026-04-25 15:24 34.19924 11.13220 15154 ft 380 kts 41°
2026-04-25 15:24 34.21838 11.15444 15777 ft 384 kts 41°
2026-04-25 15:24 34.23779 11.17686 16378 ft 388 kts 40°
2026-04-25 15:24 34.25082 11.19180 16766 ft 391 kts 40°
2026-04-25 15:25 34.27744 11.22211 17563 ft 396 kts 39°
2026-04-25 15:25 34.29761 11.24500 18166 ft 400 kts 39°
2026-04-25 15:25 34.31802 11.26818 18698 ft 403 kts 39°
2026-04-25 15:25 34.33827 11.29122 19205 ft 407 kts 39°
2026-04-25 15:26 34.35895 11.31476 19730 ft 410 kts 39°
2026-04-25 15:26 34.38011 11.33877 20246 ft 413 kts 39°
2026-04-25 15:26 34.40098 11.36215 20754 ft 416 kts 38°
2026-04-25 15:26 34.42262 11.38628 21266 ft 419 kts 38°
2026-04-25 15:27 34.44383 11.40998 21747 ft 422 kts 38°
2026-04-25 15:27 34.46546 11.43420 22227 ft 425 kts 38°
2026-04-25 15:27 34.51021 11.48137 23167 ft 425 kts 28°
2026-04-25 15:28 34.53618 11.49818 23644 ft 422 kts 18°
2026-04-25 15:28 34.56392 11.50910 24044 ft 418 kts
2026-04-25 15:28 34.59253 11.51515 24449 ft 418 kts
2026-04-25 15:28 34.62134 11.52056 24836 ft 420 kts
2026-04-25 15:29 34.65032 11.52588 25209 ft 422 kts
2026-04-25 15:29 34.67953 11.53130 25587 ft 425 kts
2026-04-25 15:29 34.70881 11.53686 25957 ft 427 kts
2026-04-25 15:29 34.73829 11.54255 26322 ft 429 kts
2026-04-25 15:30 34.76784 11.54835 26674 ft 431 kts
2026-04-25 15:30 34.79747 11.55421 27016 ft 433 kts
2026-04-25 15:30 34.82697 11.56007 27361 ft 435 kts
2026-04-25 15:30 34.85728 11.56612 27697 ft 437 kts
2026-04-25 15:31 34.88706 11.57206 28024 ft 439 kts
2026-04-25 15:31 34.91774 11.57819 28343 ft 442 kts
2026-04-25 15:31 34.94771 11.58418 28648 ft 443 kts
2026-04-25 15:31 34.97823 11.59028 28963 ft 445 kts
2026-04-25 15:32 35.00888 11.59641 29272 ft 447 kts
2026-04-25 15:32 35.03964 11.60257 29584 ft 448 kts
2026-04-25 15:32 35.07040 11.60874 30018 ft 447 kts
2026-04-25 15:33 35.13150 11.62103 30827 ft 444 kts
2026-04-25 15:33 35.16200 11.62715 31088 ft 445 kts
2026-04-25 15:33 35.19264 11.63330 31352 ft 445 kts
2026-04-25 15:33 35.22320 11.63944 31673 ft 445 kts
2026-04-25 15:34 35.25370 11.64558 32007 ft 444 kts
2026-04-25 15:34 35.28419 11.65172 32299 ft 444 kts
2026-04-25 15:34 35.31471 11.65787 32578 ft 444 kts
2026-04-25 15:34 35.33495 11.66195 32779 ft 444 kts
2026-04-25 15:35 35.40627 11.67635 33463 ft 444 kts
2026-04-25 15:35 35.43668 11.68250 33755 ft 444 kts
2026-04-25 15:35 35.46716 11.68866 34017 ft 444 kts
2026-04-25 15:36 35.52774 11.70093 34519 ft 443 kts
2026-04-25 15:36 35.55813 11.70709 34786 ft 442 kts
2026-04-25 15:36 35.58852 11.71327 35033 ft 442 kts
2026-04-25 15:37 35.61884 11.71942 35272 ft 441 kts
2026-04-25 15:37 35.64911 11.72557 35502 ft 441 kts
2026-04-25 15:37 35.67943 11.73174 35721 ft 440 kts
2026-04-25 15:37 35.70965 11.73789 35954 ft 440 kts
2026-04-25 15:38 35.73985 11.74404 36124 ft 441 kts
2026-04-25 15:38 35.77024 11.75022 36111 ft 444 kts
2026-04-25 15:38 35.83097 11.76262 36109 ft 441 kts
2026-04-25 15:39 35.89123 11.77495 36119 ft 437 kts
2026-04-25 15:39 35.95112 11.78722 36122 ft 435 kts
2026-04-25 15:40 35.99069 11.79533 36122 ft 434 kts
2026-04-25 15:40 36.06999 11.81160 36121 ft 434 kts
2026-04-25 15:41 36.12978 11.82389 36131 ft 436 kts
2026-04-25 15:41 36.18983 11.83625 36125 ft 438 kts
2026-04-25 15:42 36.25010 11.84868 36125 ft 440 kts
2026-04-25 15:42 36.31068 11.86120 36121 ft 442 kts
2026-04-25 15:43 36.37153 11.87379 36120 ft 444 kts
2026-04-25 15:43 36.43261 11.88646 36120 ft 445 kts
2026-04-25 15:44 36.49377 11.89916 36118 ft 446 kts
2026-04-25 15:44 36.55475 11.91184 36115 ft 446 kts
2026-04-25 15:45 36.61598 11.92460 36109 ft 446 kts
2026-04-25 15:45 36.65693 11.93314 36107 ft 445 kts
2026-04-25 15:46 36.73823 11.95013 36105 ft 444 kts
2026-04-25 15:46 36.79923 11.96290 36112 ft 444 kts
2026-04-25 15:47 36.86019 11.97511 36099 ft 443 kts
2026-04-25 15:47 36.92076 11.98637 36107 ft 443 kts
2026-04-25 15:48 36.98169 11.99767 36109 ft 443 kts
2026-04-25 15:48 37.04262 12.00910 36113 ft 443 kts
2026-04-25 15:49 37.10350 12.02060 36117 ft 443 kts
2026-04-25 15:49 37.16454 12.03218 36121 ft 444 kts
2026-04-25 15:50 37.22570 12.04380 36122 ft 445 kts
2026-04-25 15:50 37.28699 12.05546 36119 ft 446 kts
2026-04-25 15:51 37.32805 12.06328 36119 ft 447 kts
2026-04-25 15:51 37.41007 12.07893 36121 ft 448 kts
2026-04-25 15:52 37.47176 12.09073 36122 ft 449 kts
2026-04-25 15:52 37.53365 12.10258 36122 ft 450 kts
2026-04-25 15:53 37.59556 12.11445 36119 ft 450 kts
2026-04-25 15:53 37.65717 12.12629 36118 ft 450 kts
2026-04-25 15:54 37.71953 12.13830 36115 ft 451 kts
2026-04-25 15:54 37.78126 12.15020 36116 ft 451 kts
2026-04-25 15:55 37.84323 12.16217 36117 ft 450 kts
2026-04-25 15:55 37.90519 12.17415 36112 ft 450 kts
2026-04-25 15:56 37.96716 12.18616 36112 ft 450 kts
2026-04-25 15:56 38.02905 12.19818 36114 ft 450 kts
2026-04-25 15:57 38.08049 12.20818 36113 ft 450 kts
2026-04-25 15:57 38.15232 12.22217 36118 ft 449 kts
2026-04-25 15:58 38.21413 12.23423 36121 ft 449 kts
2026-04-25 15:58 38.27592 12.24631 36120 ft 449 kts
2026-04-25 15:59 38.32770 12.25644 36124 ft 449 kts
2026-04-25 15:59 38.38906 12.26847 36119 ft 449 kts
2026-04-25 16:00 38.44084 12.27864 36122 ft 449 kts
2026-04-25 16:00 38.51260 12.29276 36124 ft 449 kts
2026-04-25 16:01 38.57437 12.30493 36124 ft 449 kts
2026-04-25 16:01 38.63612 12.31713 36117 ft 449 kts
2026-04-25 16:02 38.69789 12.32934 36119 ft 449 kts
2026-04-25 16:02 38.75961 12.34157 36118 ft 449 kts
2026-04-25 16:03 38.82153 12.35386 36129 ft 450 kts
2026-04-25 16:03 38.88352 12.36618 36130 ft 451 kts
2026-04-25 16:04 38.94558 12.37854 36123 ft 452 kts
2026-04-25 16:04 39.00744 12.39089 36126 ft 452 kts
2026-04-25 16:05 39.06970 12.40333 36121 ft 452 kts
2026-04-25 16:06 39.16299 12.42202 36120 ft 452 kts
2026-04-25 16:06 39.22513 12.43450 36124 ft 452 kts
2026-04-25 16:07 39.28721 12.44698 36121 ft 451 kts
2026-04-25 16:07 39.34920 12.45948 36123 ft 451 kts
2026-04-25 16:08 39.41077 12.47190 36117 ft 450 kts
2026-04-25 16:08 39.47262 12.48441 36123 ft 450 kts
2026-04-25 16:09 39.53448 12.49694 36117 ft 449 kts
2026-04-25 16:09 39.59628 12.50948 36118 ft 449 kts
2026-04-25 16:10 39.65797 12.52203 36112 ft 449 kts
2026-04-25 16:10 39.71962 12.53458 36121 ft 448 kts
2026-04-25 16:11 39.78091 12.54709 36116 ft 448 kts
2026-04-25 16:11 39.84256 12.55969 36118 ft 448 kts
2026-04-25 16:12 39.90426 12.57233 36113 ft 448 kts
2026-04-25 16:12 39.96603 12.58500 36118 ft 448 kts
2026-04-25 16:13 40.02768 12.59767 36111 ft 448 kts
2026-04-25 16:13 40.08934 12.61037 36112 ft 448 kts
2026-04-25 16:14 40.15057 12.62300 36109 ft 448 kts
2026-04-25 16:14 40.21220 12.63574 36114 ft 448 kts
2026-04-25 16:15 40.27381 12.64849 36107 ft 448 kts
2026-04-25 16:15 40.33545 12.66128 36110 ft 448 kts 10°
2026-04-25 16:16 40.39697 12.67406 36104 ft 447 kts
2026-04-25 16:16 40.45850 12.68688 36109 ft 447 kts 10°
2026-04-25 16:17 40.51990 12.69969 36104 ft 446 kts 10°
2026-04-25 16:17 40.58084 12.71243 36106 ft 446 kts 10°
2026-04-25 16:18 40.64210 12.72525 36098 ft 446 kts 10°
2026-04-25 16:18 40.70331 12.73809 36104 ft 445 kts 10°
2026-04-25 16:19 40.76445 12.75093 36096 ft 445 kts 10°
2026-04-25 16:19 40.82564 12.76382 36098 ft 444 kts 10°
2026-04-25 16:20 40.91722 12.78314 36095 ft 444 kts 10°
2026-04-25 16:21 41.00834 12.80242 36091 ft 444 kts 10°
2026-04-25 16:21 41.06966 12.81543 36092 ft 443 kts 10°
2026-04-25 16:22 41.13023 12.82830 36087 ft 443 kts 10°
2026-04-25 16:22 41.19109 12.84126 36087 ft 443 kts 10°
2026-04-25 16:23 41.25196 12.85425 36078 ft 443 kts 10°
2026-04-25 16:23 41.31285 12.86726 36081 ft 443 kts 10°
2026-04-25 16:24 41.37364 12.88029 36071 ft 443 kts 10°
2026-04-25 16:24 41.43447 12.89333 36079 ft 443 kts 10°
2026-04-25 16:25 41.49530 12.90640 36075 ft 443 kts 10°
2026-04-25 16:25 41.55610 12.91950 36076 ft 443 kts 10°
2026-04-25 16:26 41.61699 12.93263 36065 ft 443 kts 10°
2026-04-25 16:26 41.67789 12.94580 36067 ft 443 kts 10°
2026-04-25 16:27 41.73839 12.95890 36071 ft 443 kts 10°
2026-04-25 16:27 41.79929 12.97211 36069 ft 443 kts 11°
2026-04-25 16:28 41.86024 12.98537 36070 ft 443 kts 11°
2026-04-25 16:28 41.92113 12.99863 36067 ft 443 kts 11°
2026-04-25 16:29 41.98200 13.01192 36060 ft 443 kts 11°
2026-04-25 16:29 42.04288 13.02523 36051 ft 443 kts 11°
2026-04-25 16:30 42.10360 13.03853 36058 ft 442 kts 11°
2026-04-25 16:30 42.16430 13.05186 36057 ft 441 kts 11°
2026-04-25 16:31 42.22453 13.06510 36054 ft 441 kts 11°
2026-04-25 16:31 42.28510 13.07845 36049 ft 440 kts 11°
2026-04-25 16:32 42.34588 13.09188 36048 ft 440 kts 11°
2026-04-25 16:32 42.40598 13.10517 36052 ft 440 kts 10°
2026-04-25 16:33 42.46636 13.11855 36059 ft 440 kts 11°
2026-04-25 16:33 42.52687 13.13200 36058 ft 440 kts 11°
2026-04-25 16:34 42.58737 13.14546 36050 ft 441 kts 11°
2026-04-25 16:34 42.64796 13.15898 36057 ft 441 kts 11°
2026-04-25 16:35 42.70859 13.17252 36046 ft 442 kts 11°
2026-04-25 16:35 42.76923 13.18609 36063 ft 441 kts 11°
2026-04-25 16:36 42.82983 13.19969 36051 ft 441 kts 11°
2026-04-25 16:36 42.89001 13.21321 36051 ft 441 kts 11°
2026-04-25 16:37 42.95060 13.22686 36053 ft 440 kts 11°
2026-04-25 16:37 43.01106 13.24048 36044 ft 440 kts 11°
2026-04-25 16:38 43.07142 13.25410 36036 ft 440 kts 11°
2026-04-25 16:38 43.13181 13.26781 36029 ft 439 kts 11°
2026-04-25 16:39 43.19206 13.28150 36038 ft 439 kts 11°
2026-04-25 16:39 43.25229 13.29521 36017 ft 438 kts 11°
2026-04-25 16:40 43.31243 13.30891 36016 ft 437 kts 11°
2026-04-25 16:40 43.37213 13.32255 36019 ft 437 kts 11°
2026-04-25 16:41 43.43203 13.33625 36022 ft 436 kts 11°
2026-04-25 16:41 43.52175 13.35684 36025 ft 435 kts 11°
2026-04-25 16:42 43.58146 13.37057 36025 ft 435 kts 11°
2026-04-25 16:42 43.64114 13.38432 36027 ft 434 kts 11°
2026-04-25 16:43 43.70076 13.39809 36017 ft 434 kts 11°
2026-04-25 16:43 43.76027 13.41186 36030 ft 433 kts 11°
2026-04-25 16:44 43.81931 13.42555 36019 ft 433 kts 11°
2026-04-25 16:44 43.87908 13.43943 36029 ft 433 kts 11°
2026-04-25 16:45 43.93852 13.45327 36020 ft 433 kts 11°
2026-04-25 16:45 43.99753 13.46704 36024 ft 433 kts 11°
2026-04-25 16:46 44.05694 13.48092 36026 ft 433 kts 11°
2026-04-25 16:46 44.09668 13.49023 36021 ft 433 kts 11°
2026-04-25 16:47 44.17580 13.50879 36025 ft 433 kts 11°
2026-04-25 16:47 44.23529 13.52278 36022 ft 433 kts 11°
2026-04-25 16:48 44.29478 13.53680 36005 ft 434 kts 11°
2026-04-25 16:48 44.34425 13.54848 36019 ft 433 kts 11°
2026-04-25 16:49 44.40385 13.56257 36016 ft 434 kts 11°
2026-04-25 16:49 44.46333 13.57667 36011 ft 434 kts 11°
2026-04-25 16:50 44.52281 13.59080 36008 ft 433 kts 11°
2026-04-25 16:50 44.58233 13.60496 36010 ft 433 kts 11°
2026-04-25 16:51 44.64136 13.61904 36016 ft 433 kts 11°
2026-04-25 16:51 44.69113 13.63093 36013 ft 433 kts 11°
2026-04-25 16:52 44.76008 13.64745 36002 ft 432 kts 11°
2026-04-25 16:52 44.81933 13.66166 36020 ft 432 kts 11°
2026-04-25 16:53 44.90806 13.68301 36021 ft 431 kts 11°
2026-04-25 16:54 44.96714 13.69726 36017 ft 430 kts 11°
2026-04-25 16:54 45.02613 13.71153 36014 ft 430 kts 11°
2026-04-25 16:55 45.08534 13.72588 36271 ft 432 kts 11°
2026-04-25 16:55 45.11483 13.73303 36617 ft 429 kts 11°
2026-04-25 16:55 45.14416 13.74015 36935 ft 426 kts 11°
2026-04-25 16:56 45.20249 13.75434 37012 ft 430 kts 11°
2026-04-25 16:56 45.26123 13.76866 37004 ft 426 kts 11°
2026-04-25 16:57 45.31939 13.78286 37014 ft 422 kts 11°
2026-04-25 16:57 45.37709 13.79699 37011 ft 420 kts 11°
2026-04-25 16:58 45.43457 13.81109 37019 ft 418 kts 11°
2026-04-25 16:58 45.49186 13.82517 37015 ft 418 kts 11°
2026-04-25 16:59 45.54917 13.83929 37019 ft 419 kts 11°
2026-04-25 16:59 45.60671 13.85350 37019 ft 420 kts 11°
2026-04-25 17:00 45.66444 13.86778 37008 ft 422 kts 11°
2026-04-25 17:00 45.72242 13.88215 37010 ft 423 kts 11°
2026-04-25 17:01 45.78055 13.89659 37009 ft 424 kts 11°
2026-04-25 17:01 45.83883 13.91109 36998 ft 425 kts 11°
2026-04-25 17:02 45.89673 13.92553 36997 ft 425 kts 11°
2026-04-25 17:02 45.95484 13.94006 36994 ft 424 kts 11°
2026-04-25 17:03 46.01280 13.95460 36996 ft 420 kts 11°
2026-04-25 17:03 46.07004 13.96895 37015 ft 416 kts 11°
2026-04-25 17:04 46.12700 13.98327 36997 ft 414 kts 11°
2026-04-25 17:04 46.18375 13.99758 37012 ft 416 kts 11°
2026-04-25 17:05 46.24148 14.01218 36987 ft 424 kts 11°
2026-04-25 17:05 46.32925 14.03441 36985 ft 429 kts 10°
2026-04-25 17:06 46.38816 14.04937 36982 ft 430 kts 10°
2026-04-25 17:06 46.44698 14.06434 36971 ft 429 kts 10°
2026-04-25 17:07 46.50571 14.07932 36964 ft 427 kts 10°
2026-04-25 17:07 46.56419 14.09427 36939 ft 426 kts 10°
2026-04-25 17:08 46.62248 14.10920 36949 ft 424 kts 10°
2026-04-25 17:08 46.68051 14.12411 36947 ft 423 kts 10°
2026-04-25 17:09 46.73840 14.13901 36943 ft 421 kts 10°
2026-04-25 17:09 46.79566 14.15377 36953 ft 421 kts
2026-04-25 17:10 46.85332 14.16868 36972 ft 420 kts
2026-04-25 17:10 46.91097 14.18361 36978 ft 421 kts
2026-04-25 17:11 46.96869 14.19860 36983 ft 421 kts
2026-04-25 17:11 47.02649 14.21363 36993 ft 423 kts
2026-04-25 17:12 47.08458 14.22878 36999 ft 424 kts
2026-04-25 17:12 47.14279 14.24399 37002 ft 426 kts
2026-04-25 17:13 47.18141 14.25410 36997 ft 426 kts
2026-04-25 17:13 47.25955 14.27460 37024 ft 427 kts
2026-04-25 17:14 47.31814 14.29002 37018 ft 428 kts
2026-04-25 17:14 47.37672 14.30547 37028 ft 428 kts
2026-04-25 17:15 47.43540 14.32097 37034 ft 429 kts
2026-04-25 17:15 47.49382 14.33645 37044 ft 429 kts
2026-04-25 17:16 47.55268 14.35208 37031 ft 430 kts
2026-04-25 17:16 47.61165 14.36777 37037 ft 430 kts
2026-04-25 17:17 47.67059 14.38349 37041 ft 430 kts
2026-04-25 17:17 47.72959 14.39812 37039 ft 430 kts
2026-04-25 17:18 47.78878 14.40774 37037 ft 430 kts
2026-04-25 17:18 47.84870 14.41660 37032 ft 430 kts
2026-04-25 17:19 47.90780 14.42584 37029 ft 429 kts
2026-04-25 17:19 47.96719 14.43553 37020 ft 428 kts
2026-04-25 17:20 48.02643 14.44531 37026 ft 428 kts
2026-04-25 17:20 48.08565 14.45511 36857 ft 430 kts
2026-04-25 17:21 48.11554 14.46006 36357 ft 432 kts
2026-04-25 17:21 48.14539 14.46502 35773 ft 430 kts
2026-04-25 17:21 48.17516 14.46999 35308 ft 431 kts
2026-04-25 17:21 48.20517 14.47503 34501 ft 437 kts
2026-04-25 17:22 48.23553 14.48006 33854 ft 440 kts
2026-04-25 17:22 48.24536 14.48170 33681 ft 439 kts
2026-04-25 17:22 48.29599 14.49014 32797 ft 434 kts
2026-04-25 17:22 48.32593 14.49516 32309 ft 431 kts
2026-04-25 17:23 48.35565 14.50015 31835 ft 428 kts
2026-04-25 17:23 48.38523 14.50512 31362 ft 425 kts
2026-04-25 17:23 48.41411 14.50997 30913 ft 423 kts
2026-04-25 17:23 48.44330 14.51488 30443 ft 421 kts
2026-04-25 17:24 48.47233 14.51975 29946 ft 419 kts
2026-04-25 17:24 48.50128 14.52462 29426 ft 416 kts
2026-04-25 17:24 48.52993 14.52946 28918 ft 413 kts
2026-04-25 17:24 48.55840 14.53427 28431 ft 410 kts
2026-04-25 17:25 48.58659 14.53903 27953 ft 406 kts
2026-04-25 17:25 48.61458 14.54378 27481 ft 403 kts
2026-04-25 17:25 48.64229 14.54847 27025 ft 400 kts
2026-04-25 17:25 48.66984 14.55315 26570 ft 397 kts
2026-04-25 17:26 48.69722 14.55779 26110 ft 394 kts
2026-04-25 17:26 48.72434 14.56240 25657 ft 391 kts
2026-04-25 17:26 48.75133 14.56698 25210 ft 389 kts
2026-04-25 17:26 48.77817 14.57155 24748 ft 388 kts
2026-04-25 17:27 48.80492 14.57610 24297 ft 386 kts
2026-04-25 17:27 48.83160 14.58065 23837 ft 385 kts
2026-04-25 17:27 48.85814 14.58519 23343 ft 383 kts
2026-04-25 17:27 48.86677 14.58666 23172 ft 382 kts
2026-04-25 17:28 48.91043 14.59413 22388 ft 377 kts
2026-04-25 17:28 48.93643 14.59859 21928 ft 374 kts
2026-04-25 17:28 48.96222 14.60302 21496 ft 371 kts
2026-04-25 17:28 48.98777 14.60742 21066 ft 368 kts
2026-04-25 17:29 49.01310 14.61177 20640 ft 365 kts
2026-04-25 17:29 49.03830 14.61610 20215 ft 363 kts
2026-04-25 17:29 49.06332 14.62040 19788 ft 360 kts
2026-04-25 17:29 49.08823 14.62470 19369 ft 358 kts
2026-04-25 17:30 49.11287 14.62894 18955 ft 356 kts
2026-04-25 17:30 49.13745 14.63318 18521 ft 355 kts
2026-04-25 17:30 49.16189 14.63741 18073 ft 353 kts
2026-04-25 17:30 49.18628 14.64163 17621 ft 351 kts
2026-04-25 17:31 49.21047 14.64582 17184 ft 348 kts
2026-04-25 17:31 49.23445 14.64999 16768 ft 345 kts
2026-04-25 17:31 49.25796 14.65407 16364 ft 343 kts
2026-04-25 17:31 49.28159 14.65818 15947 ft 340 kts
2026-04-25 17:32 49.30504 14.66226 15554 ft 338 kts
2026-04-25 17:32 49.32837 14.66632 15159 ft 336 kts
2026-04-25 17:32 49.35156 14.67036 14761 ft 334 kts
2026-04-25 17:32 49.37455 14.67437 14367 ft 332 kts
2026-04-25 17:33 49.39738 14.67836 13979 ft 330 kts
2026-04-25 17:33 49.42013 14.68232 13552 ft 328 kts
2026-04-25 17:33 49.44281 14.68629 13131 ft 327 kts
2026-04-25 17:33 49.46535 14.69024 12728 ft 325 kts
2026-04-25 17:34 49.48773 14.69417 12333 ft 322 kts
2026-04-25 17:34 49.50989 14.69806 11942 ft 320 kts
2026-04-25 17:34 49.53190 14.70192 11562 ft 317 kts
2026-04-25 17:34 49.55387 14.70579 11184 ft 315 kts
2026-04-25 17:35 49.57530 14.70956 10815 ft 313 kts
2026-04-25 17:35 49.59690 14.71334 10501 ft 309 kts
2026-04-25 17:35 49.61789 14.71707 10371 ft 299 kts
2026-04-25 17:35 49.63830 14.72070 10234 ft 291 kts
2026-04-25 17:36 49.65806 14.72422 10107 ft 281 kts
2026-04-25 17:36 49.67717 14.72761 9962 ft 273 kts
2026-04-25 17:36 49.69600 14.73090 9656 ft 271 kts
2026-04-25 17:36 49.71465 14.73417 9384 ft 269 kts
2026-04-25 17:37 49.73328 14.73745 8988 ft 271 kts
2026-04-25 17:37 49.75215 14.74076 8566 ft 275 kts
2026-04-25 17:37 49.76480 14.74299 8287 ft 277 kts
2026-04-25 17:37 49.78409 14.74641 7852 ft 278 kts
2026-04-25 17:38 49.80320 14.74982 7427 ft 274 kts
2026-04-25 17:38 49.81595 14.75210 7140 ft 272 kts
2026-04-25 17:38 49.84033 14.75595 6861 ft 254 kts 354°
2026-04-25 17:38 49.85676 14.74948 6602 ft 241 kts 328°
2026-04-25 17:39 49.86994 14.73404 6381 ft 237 kts 311°
2026-04-25 17:39 49.88043 14.71433 6130 ft 237 kts 306°
2026-04-25 17:39 49.89038 14.69372 5875 ft 239 kts 305°
2026-04-25 17:39 49.90032 14.67295 5621 ft 240 kts 306°
2026-04-25 17:40 49.91027 14.65227 5368 ft 237 kts 306°
2026-04-25 17:40 49.92015 14.63241 5090 ft 229 kts 308°
2026-04-25 17:40 49.93028 14.61376 4840 ft 222 kts 308°
2026-04-25 17:40 49.93968 14.59539 4608 ft 212 kts 306°
2026-04-25 17:41 49.94837 14.57761 4360 ft 202 kts 306°
2026-04-25 17:41 49.95652 14.56067 4095 ft 194 kts 306°
2026-04-25 17:41 49.96437 14.54431 4019 ft 187 kts 306°
2026-04-25 17:41 49.97209 14.52817 3994 ft 184 kts 306°
2026-04-25 17:42 49.97965 14.51238 3986 ft 181 kts 306°
2026-04-25 17:42 49.98709 14.49686 4003 ft 177 kts 306°
2026-04-25 17:42 49.99423 14.48198 3988 ft 167 kts 306°
2026-04-25 17:42 50.00106 14.46772 3981 ft 163 kts 306°
2026-04-25 17:43 50.00780 14.45368 3926 ft 162 kts 306°
2026-04-25 17:43 50.01465 14.43938 3742 ft 167 kts 306°
2026-04-25 17:43 50.02146 14.42519 3530 ft 161 kts 306°
2026-04-25 17:43 50.02810 14.41138 3318 ft 160 kts 306°
2026-04-25 17:44 50.03473 14.39757 3088 ft 159 kts 305°
2026-04-25 17:44 50.04130 14.38389 2878 ft 156 kts 305°
2026-04-25 17:44 50.04751 14.37097 2710 ft 150 kts 306°
2026-04-25 17:44 50.05369 14.35811 2491 ft 146 kts 306°
2026-04-25 17:45 50.05971 14.34561 2297 ft 144 kts 306°
2026-04-25 17:45 50.06366 14.33738 2198 ft 139 kts 306°
2026-04-25 17:45 50.07120 14.32152 1870 ft 137 kts 306°
2026-04-25 17:45 50.07702 14.30941 1717 ft 150 kts 306°
2026-04-25 17:46 50.08309 14.29696 1483 ft 138 kts 307°
2026-04-25 17:46 50.08858 14.28555 1309 ft 128 kts 306°
2026-04-25 17:46 50.09378 14.27482 1209 ft 114 kts 305°
2026-04-25 17:46 50.09784 14.26643 1204 ft 80 kts 307°
2026-04-25 17:47 50.10044 14.26098 1191 ft 45 kts 307°
2026-04-25 17:47 50.10191 14.25803 1184 ft 20 kts 312°
2026-04-25 17:47 50.10306 14.25681 1183 ft 20 kts 343°
2026-04-25 17:47 50.10434 14.25665 1181 ft 15 kts
2026-04-25 17:48 50.10478 14.25692 1180 ft 5 kts 46°
2026-04-25 17:48 50.10488 14.25751 1177 ft 7 kts 83°
2026-04-25 17:48 50.10498 14.25833 1175 ft 9 kts 75°
2026-04-25 17:49 50.10516 14.25937 1173 ft 11 kts 62°
2026-04-25 17:49 50.10523 14.25954 1171 ft 1 kts 54°
2026-04-25 17:49 50.10532 14.25970 1172 ft 3 kts 45°
2026-04-25 17:49 50.10568 14.26012 1172 ft 10 kts 36°
2026-04-25 17:50 50.10631 14.26072 1172 ft 11 kts 33°
2026-04-25 17:50 50.10691 14.26135 1173 ft 10 kts 34°
2026-04-25 17:50 50.10763 14.26212 1171 ft 16 kts 36°
2026-04-25 17:50 50.10856 14.26310 1170 ft 16 kts 35°
2026-04-25 17:51 50.10945 14.26406 1171 ft 15 kts 34°
2026-04-25 17:51 50.11033 14.26508 1171 ft 15 kts 52°
2026-04-25 17:51 50.10996 14.26640 1170 ft 15 kts 146°
2026-04-25 17:51 50.10926 14.26715 1173 ft 5 kts 144°
2026-04-25 17:52 50.10893 14.26711 1173 ft 3 kts 201°
2026-04-25 17:52 50.10884 14.26704 1173 ft 1 kts 210°
2026-04-25 17:52 50.10880 14.26700 1173 ft 0 kts 209°